Location: Newark
(9.1700°S, 36.6800°W)
Time: 01:52:57
(UTC+00:00)

OTV 5 (USA 277) - Visible Passes

Search period start: 16 October 2019 00:00
Search period end: 26 October 2019 00:00
Orbit: 310 x 324 km, 54.5° (Epoch: 08 October)

Date Brightness Start Highest point End Pass type
(mag) Time Alt. Az. Time Alt. Az. Time Alt. Az.
19 Oct ? 20:53:47 10° SSE 20:55:24 15° SE 20:56:27 12° E visible
20 Oct ? 21:07:14 10° SSW 21:09:56 74° ESE 21:11:32 21° NE visible
21 Oct ? 21:22:23 10° WSW 21:24:24 19° WNW 21:26:23 10° N visible
